Wetbulb
58.25 58.27 58.47 58.68 58.77 58.92 58.28 57.78 55.54 51.96 51.68 51.80 49.84 46.07 47.71 47.79 48.95 49.08 50.17 54.39 54.85 55.10 55.39 55.07 55.15 55.47 55.75 55.95 55.74 55.64 54.96 53.68 52.75 52.05 51.15 50.64 50.48 49.97
57.70 57.56 57.78 57.46 57.20 57.35 57.30 57.47 57.00 55.73 52.76 51.42 47.46 45.22 45.46 46.06 48.67 48.40 49.29 51.31 52.76 52.66 52.38 52.12 52.40 52.30 52.59 52.78 52.89 52.50 51.71 51.29 51.32 51.21 50.01 49.01 48.72 48.45
53.86 52.72 52.01 51.63 51.62 51.81 51.92 52.35 53.35 53.98 52.18 47.94 45.49 44.32 44.53 44.90 46.28 46.47 46.95 45.90 48.30 50.43 50.43 49.96 49.74 49.68 49.81 50.28 50.59 50.68 50.21 50.06 49.34 48.64 48.46 47.95 47.45 46.62
50.25 49.54 48.06 48.42 48.41 47.96 48.43 48.60 50.48 51.38 50.92 50.04 44.55 42.27 43.81 44.28 44.73 44.35 43.46 43.18 43.44 47.52 48.06 47.86 47.74 47.79 48.25 48.80 48.90 48.16 47.44 46.71 46.51 46.74 45.36 44.84 44.99 45.13
45.12 44.91 44.33 44.26 43.71 45.07 46.30 46.28 47.47 48.98 49.81 48.51 44.67 42.23 42.24 43.10 41.92 40.74 40.29 38.44 39.65 44.73 46.12 46.22 46.91 47.15 47.26 46.89 46.13 45.12 44.27 44.00 43.92 43.29 42.63 42.59 43.15 43.74
42.55 42.46 42.02 41.60 41.28 41.25 42.64 43.00 44.96 46.71 47.49 46.08 42.76 40.49 40.86 41.29 40.71 37.53 36.54 36.38 36.00 37.57 40.61 41.63 43.76 44.98 44.72 44.47 43.92 42.94 41.74 41.30 41.67 41.61 41.27 41.64 42.10 42.78
39.52 39.59 39.45 41.28 43.55 44.05 43.26 41.53 43.01 44.58 44.32 41.95 39.16 39.03 37.35 37.66 38.31 37.60 36.10 34.56 33.48 33.27 32.64 32.17 31.08 30.35 32.32 37.57 39.25 41.91 41.25 40.21 39.81 40.96 41.35 41.42 41.58 41.80
38.38 37.20 37.43 39.92 40.74 43.50 44.45 44.62 44.51 42.70 40.83 38.38 37.18 37.81 38.22 38.29 36.84 36.13 33.68 32.38 32.14 32.07 30.87 29.63 28.11 28.01 28.77 28.88 36.88 39.52 40.87 40.46 39.79 40.56 41.44 41.78 41.66 41.10
37.91 35.47 37.16 38.37 37.86 36.99 38.95 39.54 38.55 40.16 39.98 39.93 38.95 39.05 38.58 38.21 36.67 34.31 33.68 33.25 33.03 28.99 29.39 25.89 26.83 26.51 28.45 30.76 36.90 39.22 39.50 39.71 39.72 40.16 40.72 41.28 41.35 40.79
37.40 36.33 36.03 35.69 36.23 36.85 34.23 32.68 32.63 35.19 37.32 36.65 36.10 37.05 37.85 37.95 37.18 35.82 33.92 30.07 29.15 29.02 29.31 27.32 25.79 26.74 28.02 29.09 36.68 39.65 39.90 39.41 38.94 39.14 39.81 40.53 40.82 40.75
34.62 34.75 35.24 35.14 39.05 39.94 33.42 31.10 30.95 31.97 37.19 39.44 39.46 39.66 39.18 38.31 35.42 32.95 30.61 30.67 27.75 27.69 28.30 27.27 26.65 26.22 28.36 28.81 30.13 38.40 39.00 38.09 37.88 38.86 39.86 39.74 40.43 39.81
34.16 34.73 38.71 37.09 39.68 40.57 34.07 31.34 29.84 30.75 31.75 31.63 31.02 31.77 32.80 34.56 34.28 31.28 32.07 31.15 28.38 27.14 26.77 26.08 23.50 26.14 25.02 26.98 28.24 28.69 29.86 36.08 37.53 38.74 39.49 39.55 39.20 32.28
33.71 33.60 34.19 38.74 39.96 40.61 38.11 31.51 30.77 30.82 32.76 29.72 29.39 29.64 28.96 29.43 29.48 29.22 29.15 28.94 21.09 19.01 28.58 25.14 22.60 24.23 22.10 25.19 25.32 26.56 27.31 27.53 27.56 29.12 35.07 35.79 36.41 33.98
33.66 33.90 34.09 37.28 38.36 39.60 38.27 37.17 36.07 34.23 28.64 27.15 27.12 27.37 27.71 27.91 27.65 27.57 27.03 26.00 26.02 25.65 30.24 25.63 21.31 22.64 20.97 20.61 22.96 24.30 23.01 24.05 24.88 26.44 26.40 30.38 32.69 34.23
35.14 35.39 37.13 37.31 37.74 37.91 38.11 35.71 34.96 29.09 27.86 26.24 25.86 25.75 25.83 22.93 20.39 22.50 23.34 23.88 22.76 27.52 26.29 22.45 22.91 18.05 16.93 16.97 19.17 21.07 21.16 22.52 23.20 20.87 21.80 22.78 24.12 25.11
39.14 36.16 35.73 36.08 36.58 35.15 33.52 31.32 28.46 27.41 24.96 23.82 23.60 23.36 21.23 18.72 19.12 17.69 17.12 18.01 20.05 21.75 26.25 22.12 23.02 21.57 17.24 18.48 18.65 18.35 20.49 17.08 18.27 19.92 20.27 21.78 24.09 24.89
35.34 31.42 30.80 31.01 31.20 30.85 28.89 27.33 26.17 26.28 24.09 23.02 21.83 22.28 22.89 21.14 20.38 17.83 18.36 16.87 15.69 17.57 21.92 25.72 26.25 24.25 22.88 20.31 17.81 20.66 18.96 17.70 21.30 20.17 20.58 19.34 22.33 23.88
34.95 30.45 30.13 30.05 29.59 29.49 28.40 26.95 25.29 26.60 25.49 24.90 23.54 23.95 23.29 22.08 20.68 17.79 17.62 17.30 17.01 20.85 21.07 21.26 25.73 25.55 23.57 24.55 27.16 18.42 18.13 18.46 20.19 22.41 22.67 21.22 19.90 22.83
34.19 31.53 30.05 29.12 29.13 29.09 27.93 24.14 21.40 23.57 23.32 26.21 25.73 24.38 23.91 23.85 26.15 22.90 20.14 20.61 20.74 20.97 20.02 19.06 18.59 19.46 18.00 17.14 22.82 29.92 21.96 19.10 22.12 22.73 22.40 22.36 21.67 23.61
33.29 32.97 31.40 30.43 28.91 28.15 26.33 23.98 23.78 21.19 23.91 26.02 25.55 25.75 25.06 24.12 23.41 23.64 22.96 23.12 23.25 20.68 19.65 19.66 18.95 17.83 18.66 18.08 16.86 18.10 29.38 20.24 21.66 20.80 20.64 23.93 25.37 28.81
33.77 33.08 33.07 31.38 30.46 30.03 28.60 26.95 26.30 24.90 24.55 25.98 25.46 24.74 24.32 24.56 24.32 24.64 23.51 26.77 25.63 23.13 21.67 22.10 21.67 26.98 23.27 21.95 18.85 19.28 22.04 29.53 26.18 20.55 20.84 19.86 20.85 22.49
33.51 33.58 33.32 32.94 32.05 31.32 30.32 28.49 27.42 27.29 27.61 25.99 25.70 25.23 24.04 23.56 23.51 23.79 24.25 23.92 25.23 25.69 23.65 22.03 20.29 23.97 22.70 21.72 21.01 19.61 20.39 23.17 28.69 29.76 28.48 26.14 18.84 17.62
33.22 33.24 33.29 33.28 32.98 32.60 31.75 30.36 29.07 28.47 27.71 27.72 26.80 25.71 25.64 23.71 24.27 24.33 24.06 23.97 23.98 24.03 25.76 22.68 20.85 22.47 23.66 23.16 23.19 22.17 22.00 21.32 21.95 22.19 23.89 30.43 31.25 31.01
MSLP
1021.27 1021.44 1021.57 1021.32 1021.39 1021.57 1021.68 1021.76 1022.14 1022.49 1022.61 1022.46 1022.72 1022.92 1023.52 1023.64 1023.62 1023.58 1023.60 1023.31 1023.30 1023.28 1023.42 1023.44 1023.50 1023.82 1023.69 1023.72 1023.78 1023.89 1024.21 1024.75 1024.97 1025.50 1025.84 1025.93 1026.15 1026.30
1021.06 1021.26 1021.31 1021.62 1021.74 1021.69 1021.70 1021.62 1021.75 1022.00 1022.23 1022.11 1022.65 1023.08 1023.24 1023.12 1023.38 1023.48 1023.56 1023.68 1023.51 1023.16 1023.65 1023.72 1023.86 1024.03 1024.12 1024.36 1024.29 1024.65 1024.79 1025.14 1025.21 1025.65 1025.93 1026.08 1026.20 1026.54
1021.14 1021.45 1021.71 1021.93 1022.15 1022.14 1022.28 1022.33 1022.25 1022.26 1022.31 1022.43 1022.77 1023.27 1023.47 1023.35 1023.32 1023.65 1023.85 1023.82 1023.77 1023.77 1023.80 1023.82 1023.89 1024.34 1024.34 1024.44 1024.53 1024.74 1025.13 1025.33 1025.56 1025.79 1026.07 1026.27 1026.45 1026.72
1021.54 1021.61 1021.88 1022.05 1022.14 1022.30 1022.43 1022.39 1022.65 1022.44 1022.41 1022.62 1022.85 1023.16 1023.23 1023.39 1023.45 1023.59 1023.88 1023.99 1023.94 1023.93 1023.97 1023.91 1024.00 1024.59 1024.47 1024.74 1024.97 1025.06 1025.61 1025.86 1025.83 1026.04 1026.56 1026.52 1026.68 1026.86
1022.20 1022.20 1022.35 1022.46 1022.45 1022.72 1022.63 1022.41 1022.41 1022.28 1022.28 1022.26 1022.78 1023.22 1023.20 1023.24 1023.55 1023.80 1023.79 1024.34 1024.08 1024.10 1023.96 1024.26 1023.89 1024.63 1024.58 1024.90 1025.13 1025.69 1026.13 1026.18 1026.34 1026.50 1026.73 1026.74 1026.82 1026.99
1022.28 1022.29 1022.40 1022.86 1022.90 1022.91 1022.61 1022.55 1022.17 1022.33 1022.11 1022.13 1022.46 1023.07 1023.10 1023.14 1023.38 1023.56 1024.29 1024.22 1024.49 1024.23 1024.47 1024.40 1024.08 1024.81 1024.89 1025.04 1025.45 1025.75 1026.24 1026.38 1026.56 1026.67 1026.78 1026.85 1026.97 1027.12
1022.40 1022.64 1022.46 1022.77 1023.07 1022.70 1022.45 1022.48 1022.37 1022.19 1022.22 1022.23 1022.53 1022.81 1023.04 1023.05 1022.93 1023.19 1023.62 1024.13 1024.50 1024.57 1025.01 1025.00 1024.81 1025.43 1025.32 1025.32 1025.73 1025.81 1026.05 1026.48 1026.74 1026.73 1026.73 1026.94 1027.02 1027.21
1022.70 1022.64 1022.75 1022.68 1022.64 1022.90 1022.61 1022.39 1022.33 1022.22 1022.22 1022.32 1022.39 1022.48 1022.30 1022.34 1022.49 1022.81 1023.40 1024.26 1024.72 1024.25 1024.81 1025.25 1025.35 1025.85 1025.67 1025.73 1025.68 1025.77 1025.87 1026.27 1026.64 1026.72 1026.71 1026.88 1026.98 1027.17
1022.64 1022.56 1022.63 1022.72 1023.00 1023.10 1022.89 1022.70 1022.58 1022.38 1022.27 1022.37 1022.26 1022.15 1022.01 1021.88 1022.25 1022.76 1023.02 1023.45 1023.81 1024.39 1024.64 1025.31 1025.71 1025.88 1025.77 1025.65 1025.51 1025.53 1025.74 1026.08 1026.43 1026.53 1026.62 1026.80 1026.91 1027.04
1022.42 1022.57 1022.67 1022.49 1022.68 1022.92 1022.95 1022.85 1022.77 1022.73 1022.39 1022.26 1022.26 1022.13 1021.97 1021.78 1021.96 1022.16 1022.62 1023.49 1024.14 1024.50 1024.47 1025.28 1025.70 1025.81 1025.88 1025.72 1025.38 1025.17 1025.60 1026.06 1026.34 1026.42 1026.53 1026.67 1026.72 1026.84
1022.66 1022.70 1022.56 1022.42 1022.44 1022.60 1022.87 1023.05 1023.11 1022.97 1022.73 1022.42 1022.26 1021.96 1021.80 1021.75 1022.05 1022.36 1023.02 1023.59 1024.32 1024.58 1024.78 1024.95 1025.66 1025.89 1025.97 1025.82 1025.63 1025.11 1025.53 1025.96 1026.17 1026.19 1026.23 1026.39 1026.44 1026.76
1022.60 1022.64 1022.33 1022.17 1022.32 1022.39 1022.70 1022.79 1022.97 1022.94 1022.90 1022.78 1022.82 1022.78 1022.61 1022.50 1022.53 1022.63 1022.85 1023.40 1024.05 1024.56 1024.51 1025.07 1025.63 1025.64 1026.11 1026.12 1025.91 1025.85 1025.91 1025.89 1025.96 1025.90 1025.87 1026.04 1026.34 1027.05
1022.28 1022.35 1022.38 1022.38 1022.21 1022.14 1022.32 1022.46 1022.60 1022.71 1022.90 1022.97 1023.13 1023.38 1023.30 1023.26 1023.27 1023.16 1023.17 1023.45 1023.84 1023.95 1023.98 1024.54 1025.55 1025.75 1025.90 1026.15 1026.10 1026.19 1026.20 1026.31 1026.46 1026.51 1026.31 1026.43 1026.54 1026.84
1022.05 1022.11 1022.23 1022.16 1022.12 1022.01 1022.01 1022.13 1022.12 1022.41 1022.90 1023.11 1023.30 1023.64 1023.86 1023.96 1023.83 1023.77 1023.74 1023.71 1023.65 1023.62 1023.67 1024.33 1025.20 1025.39 1025.84 1026.33 1026.22 1026.38 1026.51 1026.47 1026.59 1026.67 1026.79 1026.75 1026.74 1026.70
1021.58 1021.73 1021.77 1021.71 1021.90 1021.88 1021.83 1021.87 1021.86 1022.26 1022.93 1023.24 1023.58 1023.79 1024.04 1024.34 1024.56 1024.34 1024.24 1024.18 1024.12 1024.16 1024.34 1024.46 1024.72 1025.34 1025.58 1025.83 1026.14 1026.35 1026.50 1026.47 1026.56 1026.83 1026.94 1027.04 1027.04 1027.10
1021.16 1021.33 1021.51 1021.70 1021.83 1021.82 1021.83 1021.88 1022.11 1022.40 1022.84 1023.30 1023.65 1023.73 1024.15 1024.30 1024.59 1024.57 1024.62 1024.58 1024.72 1024.80 1024.72 1024.76 1024.85 1025.20 1025.66 1025.71 1025.86 1026.16 1026.18 1026.50 1026.61 1026.76 1026.86 1026.89 1026.80 1026.85
1021.04 1021.29 1021.50 1021.72 1021.84 1021.84 1021.90 1022.01 1022.21 1022.44 1022.80 1023.09 1023.36 1023.62 1023.98 1024.17 1024.47 1024.53 1024.65 1024.83 1025.15 1025.09 1024.99 1024.85 1024.94 1025.10 1025.17 1025.35 1025.60 1025.59 1025.85 1026.07 1026.11 1026.34 1026.63 1026.64 1026.34 1026.24
1020.58 1021.06 1021.16 1021.32 1021.52 1021.64 1021.79 1021.98 1022.12 1022.17 1022.49 1022.79 1023.10 1023.30 1023.63 1023.90 1024.22 1024.43 1024.52 1024.76 1024.90 1024.88 1024.98 1024.91 1024.96 1025.07 1025.08 1024.41 1024.37 1024.95 1025.30 1025.44 1025.55 1025.81 1026.05 1026.34 1025.99 1025.45
1019.98 1020.39 1020.69 1020.86 1021.02 1021.16 1021.39 1021.74 1021.92 1021.75 1021.90 1022.22 1022.45 1022.69 1022.96 1023.27 1023.51 1023.97 1024.30 1024.40 1024.43 1024.51 1024.63 1024.68 1024.98 1025.17 1025.38 1024.78 1023.88 1023.85 1024.57 1024.93 1025.20 1025.50 1025.61 1025.69 1025.36 1024.82
1019.51 1019.75 1020.03 1020.24 1020.43 1020.70 1020.90 1021.13 1021.20 1021.29 1021.47 1021.57 1021.80 1021.92 1022.19 1022.54 1022.93 1023.11 1023.38 1023.52 1023.66 1023.83 1024.06 1024.34 1024.56 1024.63 1024.84 1024.69 1024.32 1024.02 1023.68 1024.38 1024.67 1024.96 1025.01 1024.88 1024.58 1024.21
1018.93 1019.12 1019.26 1019.44 1019.64 1019.90 1020.09 1020.28 1020.43 1020.61 1020.77 1020.91 1021.04 1021.25 1021.47 1021.76 1021.96 1022.21 1022.41 1022.60 1022.75 1022.96 1023.13 1023.26 1023.08 1023.36 1023.97 1024.30 1024.40 1023.97 1023.48 1023.36 1023.76 1024.05 1024.21 1024.46 1024.24 1023.87
1018.40 1018.45 1018.51 1018.68 1018.84 1019.10 1019.30 1019.49 1019.68 1019.82 1019.87 1020.03 1020.22 1020.47 1020.74 1021.04 1021.16 1021.29 1021.42 1021.61 1021.65 1021.79 1021.94 1022.18 1022.69 1022.93 1023.43 1023.48 1023.24 1023.24 1023.13 1022.99 1022.86 1023.07 1023.22 1023.23 1023.38 1023.10
1018.02 1018.00 1018.03 1018.12 1018.21 1018.34 1018.49 1018.65 1018.78 1018.88 1019.01 1019.12 1019.29 1019.49 1019.74 1020.02 1020.22 1020.33 1020.47 1020.60 1020.75 1020.94 1021.16 1021.68 1022.14 1022.32 1022.30 1022.32 1022.39 1022.40 1022.48 1022.63 1022.72 1022.69 1022.38 1022.13 1021.99 1021.92
Wind_Speed
2 3 3 2 1 3 3 3 2 2 3 3 3 1 2 2 3 2 2 6 9 11 11 11 11 11 13 13 16 16 14 13 13 11 9 9 7 6
0 2 3 4 4 3 3 2 1 3 3 1 2 2 3 3 3 4 3 3 7 10 8 9 9 8 9 9 11 11 11 8 10 10 9 8 8 7
4 4 4 3 2 3 3 3 3 2 4 1 1 1 2 3 4 2 2 3 3 6 7 8 8 6 7 7 8 9 9 10 10 9 8 7 7 6
4 4 4 3 4 4 3 2 2 3 3 6 3 3 3 3 3 4 3 1 2 4 6 7 7 5 6 7 8 9 8 7 8 9 7 6 6 6
4 4 4 4 3 2 3 2 2 2 3 2 2 0 1 2 3 1 2 2 2 2 5 6 8 7 8 8 8 7 6 7 7 8 6 6 6 6
4 5 5 4 3 3 3 4 2 3 3 2 2 2 2 1 2 3 3 1 2 1 4 5 8 7 7 6 6 8 6 5 5 6 6 7 7 6
5 4 4 3 4 5 2 4 3 2 3 2 2 2 3 2 5 4 3 2 2 2 2 1 3 1 2 3 2 9 7 5 5 7 7 8 8 6
3 3 3 4 5 6 7 8 6 3 2 1 2 3 3 4 3 4 4 3 4 2 3 2 2 2 1 1 4 6 8 8 8 8 8 9 8 6
2 2 3 2 3 3 5 6 7 7 4 3 3 3 2 4 5 4 4 2 2 2 3 2 1 2 2 2 5 8 8 8 9 9 8 8 8 6
2 2 1 2 2 2 3 4 4 4 4 2 2 4 4 2 3 2 3 5 3 2 1 3 2 2 1 2 2 9 10 9 8 8 8 9 8 7
1 1 2 2 2 2 2 2 3 2 4 10 10 8 5 3 4 4 3 4 2 2 2 2 2 2 1 1 1 3 9 7 6 7 9 9 9 9
2 2 4 3 3 4 3 1 3 3 1 3 4 6 8 7 6 2 3 3 3 1 3 3 2 3 1 1 0 2 3 3 5 6 7 8 9 4
1 1 2 6 5 5 6 3 3 2 1 2 2 2 3 4 3 3 3 2 3 1 4 4 2 2 2 2 1 0 0 1 1 2 4 3 4 6
3 2 3 6 6 5 3 5 4 3 2 1 1 1 1 1 2 3 4 3 2 2 6 4 3 3 3 1 2 1 0 0 1 2 1 1 1 3
3 5 6 5 6 3 6 5 4 3 2 1 1 1 1 1 1 2 3 4 4 4 2 2 3 3 2 2 3 3 3 2 1 2 1 2 2 1
6 4 4 5 6 5 4 1 1 3 3 2 2 1 2 2 0 1 1 1 2 2 2 2 4 3 2 2 2 2 2 3 1 2 2 1 2 3
3 2 2 2 3 3 2 3 2 2 2 2 2 2 2 2 1 1 1 1 2 1 1 1 2 2 2 4 2 4 3 2 3 3 2 2 3 5
3 3 3 4 4 4 4 4 3 4 3 3 2 3 3 3 3 1 1 2 3 2 1 2 2 1 2 4 11 3 2 2 3 3 2 3 3 4
3 4 4 4 4 4 4 4 3 4 4 4 4 4 4 4 5 4 3 2 3 2 3 2 2 2 1 2 2 14 4 2 2 3 4 5 3 3
3 4 5 5 4 4 4 4 4 3 3 4 5 5 5 4 3 4 5 5 4 3 3 3 3 4 5 4 2 3 11 4 3 3 3 3 5 13
5 5 5 5 5 5 5 4 5 4 4 4 4 5 6 5 5 6 6 11 9 5 6 7 9 14 2 2 1 2 3 16 9 5 3 2 2 2
4 5 4 5 5 6 5 5 5 5 5 5 6 5 5 5 6 7 7 7 7 7 7 3 3 4 5 7 7 4 2 2 10 17 15 11 5 3
4 4 4 4 5 5 5 5 6 6 6 6 5 6 6 6 7 7 7 7 6 7 6 4 4 4 7 8 10 6 6 4 3 3 6 18 21 23
Wind_Direction
214 246 267 339 338 265 204 190 177 268 253 210 205 126 190 207 209 165 177 115 93 88 91 94 93 85 89 90 91 93 107 121 123 130 134 124 116 117
346 349 23 16 5 4 345 341 251 246 257 166 195 163 191 163 190 172 156 114 117 111 105 100 96 101 101 103 107 115 111 124 126 132 129 132 129 127
85 73 63 45 33 28 11 357 335 313 270 267 71 126 180 156 140 142 127 122 99 117 123 118 112 120 126 128 133 132 137 136 130 134 132 131 134 124
77 70 65 43 50 34 16 352 287 292 278 281 183 191 186 179 150 159 144 124 131 135 134 128 124 142 136 136 129 123 128 132 138 131 137 130 141 137
75 74 63 40 39 10 347 329 292 259 262 252 207 190 150 175 137 132 122 122 90 175 142 154 144 141 131 134 134 134 140 137 137 138 137 135 141 146
82 73 63 40 9 336 325 309 319 302 269 223 180 197 185 174 142 137 184 145 162 68 106 125 115 153 154 151 160 149 154 156 169 164 155 150 150 153
71 68 65 23 349 349 336 310 298 270 286 215 191 179 197 183 196 176 152 132 194 162 170 28 76 52 31 62 207 170 176 189 212 200 177 172 163 160
60 24 24 25 12 1 32 33 27 332 275 209 202 219 212 201 163 167 126 155 210 175 153 174 95 207 212 194 213 208 201 207 212 206 191 185 172 168
88 68 38 31 19 4 358 15 18 20 32 319 272 246 259 205 156 166 161 154 159 150 123 160 159 211 216 237 227 211 199 200 204 199 194 195 186 179
47 5 342 3 329 34 11 10 7 355 5 359 307 302 289 284 170 171 132 101 74 82 102 161 158 196 213 244 284 203 185 184 198 207 209 209 206 189
15 266 251 289 274 145 82 348 317 334 19 48 44 37 49 92 135 115 129 137 132 183 198 126 177 137 189 215 331 226 174 189 205 226 210 208 206 191
223 265 279 208 238 203 171 187 292 281 337 11 18 26 37 50 45 17 147 149 121 160 214 131 155 153 157 258 3 31 69 160 203 210 178 175 181 122
216 293 289 278 254 246 185 186 222 194 227 95 68 37 32 31 23 32 62 145 151 173 195 119 160 148 97 147 148 121 156 121 64 42 74 101 163 156
216 214 236 251 259 251 216 221 230 171 144 112 66 350 348 358 34 46 40 52 47 175 160 120 141 152 136 161 165 160 107 81 132 162 118 249 286 246
204 221 228 235 246 239 246 239 262 154 180 165 223 239 193 177 119 47 30 45 45 52 68 123 137 138 132 149 158 180 140 221 161 149 158 170 191 171
206 217 219 226 224 220 239 270 138 167 169 185 194 167 113 104 140 95 88 27 65 355 23 47 121 138 128 185 143 169 196 180 162 170 156 235 240 221
183 163 187 223 233 229 220 217 198 184 167 178 164 163 174 141 189 137 112 87 113 200 251 209 199 204 205 160 190 201 192 201 198 184 142 262 245 227
177 196 210 215 225 225 224 227 212 216 197 184 185 186 185 183 176 171 129 156 173 188 210 193 151 167 336 254 210 185 206 198 193 185 153 215 265 226
198 197 217 207 220 214 213 201 218 211 181 197 196 197 187 187 213 189 186 179 202 193 204 161 135 136 202 268 285 202 192 200 176 189 184 205 222 250
192 207 217 216 207 221 214 212 219 203 204 205 207 203 194 189 183 194 195 204 210 186 185 174 197 185 185 209 219 269 198 173 177 188 206 220 246 265
214 214 214 210 213 216 220 217 214 209 204 204 210 206 200 190 208 209 206 220 217 203 217 215 216 213 182 108 288 261 253 213 202 174 186 179 234 263
217 223 215 217 218 218 220 216 218 223 223 206 212 206 202 202 214 209 207 211 222 216 227 209 163 180 183 208 230 212 219 231 227 226 223 213 171 228
233 227 223 225 224 226 222 218 221 227 221 224 214 210 198 206 212 215 214 213 217 221 217 190 177 193 211 215 224 227 210 196 190 221 238 237 237 245